{"data":{"norad_id":58372,"epoch":"2026-05-24T19:17:41.187552Z","epoch_age_seconds":88616,"freshness":"FRESH","line1":"1 58372U 23177X   26144.80394893  .00000033  00000+0  10732-4 0  9998","line2":"2 58372  43.0004 281.1275 0001267 282.2984  77.7725 15.27574706139861","mean_motion":15.27574706,"eccentricity":0.0001267,"inclination_deg":43.0004,"raan_deg":281.1275,"arg_perigee_deg":282.2984,"mean_anomaly_deg":77.7725,"bstar":1.0732e-5,"rev_number":13986,"period_min":94.267075406785,"perigee_km":482.1956339391,"apogee_km":483.93426251278,"semimajor_km":6861.2019482259,"source":"CELESTRAK","updated_at":"2026-05-25T13:38:18.610981Z"}}